Location: Melbourne
(37.8170°S, 144.9670°E)
Time: 23:50:56
(UTC+11:00)

ISS - All Passes

Search period start: 16 January 2017 00:00
Search period end: 26 January 2017 00:00
Orbit: 400 x 410 km, 51.6° (Epoch: 17 January)

Date Brightness Start Highest point End Pass type
(mag) Time Alt. Az. Time Alt. Az. Time Alt. Az.
16 Jan - 12:33:09 10° NNW 12:36:12 34° NE 12:39:17 10° ESE daylight
16 Jan - 14:09:50 10° W 14:12:43 26° SSW 14:15:39 10° SSE daylight
16 Jan - 19:02:35 10° SSW 19:05:28 25° SSE 19:08:21 10° E daylight
16 Jan - 20:38:54 10° WSW 20:42:01 35° NW 20:45:05 10° NNE daylight
17 Jan - 11:41:57 10° N 11:44:13 17° NE 11:46:29 10° E daylight
17 Jan - 13:17:13 10° WNW 13:20:26 44° SW 13:23:42 10° SE daylight
17 Jan - 14:56:24 10° SW 14:57:38 12° SSW 14:58:53 10° S daylight
17 Jan - 18:10:45 10° SSW 18:13:06 17° SSE 18:15:26 10° ESE daylight
17 Jan - 19:46:33 10° SW 19:49:56 75° NW 19:53:15 10° NE daylight
18 Jan - 12:24:54 10° NW 12:28:14 87° SW 12:31:38 10° SE daylight
18 Jan - 14:03:02 10° WSW 14:05:10 15° SSW 14:07:17 10° SSE daylight
18 Jan - 17:19:05 10° S 17:20:38 13° SSE 17:22:12 10° SE daylight
18 Jan - 18:54:26 10° SW 18:57:45 54° SE 19:01:03 10° ENE daylight
18 Jan - 20:32:05 10° W 20:33:54 14° NW 20:35:42 10° NNW daylight
19 Jan - 11:32:55 10° NNW 11:36:07 44° NE 11:39:20 10° ESE daylight
19 Jan - 13:10:01 10° W 13:12:44 22° SSW 13:15:29 10° SSE daylight
19 Jan - 18:02:25 10° SSW 18:05:29 30° SSE 18:08:29 10° E daylight
19 Jan - 19:39:00 10° WSW 19:41:54 27° NW 19:44:47 10° NNE daylight
20 Jan - 10:41:26 10° N 10:44:04 22° NE 10:46:43 10° ESE daylight
20 Jan - 12:17:16 10° WNW 12:20:23 36° SSW 12:23:33 10° SE daylight
20 Jan - 13:56:55 10° SSW 13:57:41 11° SSW 13:58:26 10° S daylight
20 Jan - 17:10:32 10° SSW 17:13:06 20° SSE 17:15:38 10° ESE daylight
20 Jan - 18:46:30 10° WSW 18:49:49 57° NW 18:53:05 10° NE daylight
21 Jan - 09:51:08 10° NE 09:52:04 11° NE 09:53:01 10° ENE daylight
21 Jan - 11:24:48 10° WNW 11:28:07 68° SW 11:31:29 10° SE daylight
21 Jan - 13:03:18 10° SW 13:05:08 14° SSW 13:06:59 10° SSE daylight
21 Jan - 16:18:45 10° SSW 16:20:37 14° SSE 16:22:29 10° SE daylight
21 Jan - 17:54:15 10° SW 17:57:38 69° SE 18:00:58 10° ENE daylight
21 Jan - 19:32:49 10° WNW 19:33:40 11° NW 19:34:32 10° NW daylight
22 Jan - 10:32:39 10° NW 10:35:56 58° NE 10:39:14 10° ESE daylight
22 Jan - 12:10:08 10° WSW 12:12:39 19° SSW 12:15:11 10° SSE daylight
22 Jan - 15:27:16 10° S 15:28:04 11° SSE 15:28:52 10° SSE daylight
22 Jan - 17:02:10 10° SW 17:05:20 36° SSE 17:08:29 10° ENE daylight
22 Jan - 18:39:02 10° W 18:41:40 21° NW 18:44:17 10° N daylight
23 Jan - 09:40:55 10° NNW 09:43:48 28° NE 09:46:43 10° ESE daylight
23 Jan - 11:17:14 10° W 11:20:14 30° SSW 11:23:16 10° SSE daylight
23 Jan - 16:10:12 10° SSW 16:12:57 23° SSE 16:15:42 10° E daylight
23 Jan - 17:46:21 10° WSW 17:49:35 43° NW 17:52:45 10° NNE daylight
24 Jan - 08:49:55 10° NNE 08:51:45 14° NE 08:53:35 10° E daylight
24 Jan - 10:24:37 10° WNW 10:27:53 53° SW 10:31:13 10° SE daylight
24 Jan - 12:03:29 10° SW 12:05:01 12° SSW 12:06:32 10° S daylight
24 Jan - 15:18:20 10° SSW 15:20:28 16° SSE 15:22:37 10° ESE daylight
24 Jan - 16:54:00 10° SW 16:57:23 89° SSE 17:00:44 10° NE daylight
25 Jan - 09:32:19 10° NW 09:35:38 76° NE 09:38:59 10° SE daylight
25 Jan - 11:10:10 10° WSW 11:12:27 17° SSW 11:14:46 10° SSE daylight
25 Jan - 14:26:38 10° S 14:27:54 12° SSE 14:29:10 10° SE daylight
25 Jan - 16:01:49 10° SW 16:05:05 45° SE 16:08:19 10° ENE daylight
25 Jan - 17:39:03 10° W 17:41:18 17° NW 17:43:33 10° N daylight
